STARLINK-35373

Satellite information

Favourite Embed

Satellite Type and Status

PAYLOADIN ORBIT

Key statistics

Satellite STARLINK-35373 at a glance.

Uptime

32

Days in orbit

Revolutions

≈ 15.4

Per day

Orbit

SSO

Sun Synchronous Orbit

Inclination

97.6

Latest

Satellite identification and parameters

Extended collection of information and parameters for STARLINK-35373.

Object identification

Identified? True

Debris? False

Object name: STARLINK-35373

International designator: 2025-218B

Object number (NORAD): 65792

Object ID (CCSDS): 65792

Country: UNITED STATES OF AMERICA (US)

Current information (Y/N): Y

Orbital parameters

Period: 93.602 minutes

Inclination: 97.6022 deg

SMA: 6828.911 km

Apoapsis: 452.353 km

Periapsis: 449.2 km

RAAN: 161.9437 deg

Eccentricy: 0.00023083

Argument of periapsis: 106.9537 deg

Mean anomaly: 253.196 deg

Mean motion: 15.38422283 rev/day

Mean motion (dot): -0.00462942 rev/day2

B* drag term: -0.012980554 1/REarth

Two-line elements (TLE)

Creation date: Oct. 28, 2025, 2:18 a.m.

Reference frame: TEME

Reference center: EARTH

Epoch: Oct. 27, 2025, 10:18 p.m. UTC

TLE line 0: 0 STARLINK-35373

TLE line 1: 1 65792U 25218B 25300.92961997 -.00462942 00000-0 -12981-1 0 9990

TLE line 2: 2 65792 97.6022 161.9437 0002308 106.9537 253.1960 15.38422283 4987

Live tracking on map

Real-time ground track for satellite STARLINK-35373.

In-orbit conjunctions

There are no conjunctions computed for STARLINK-35373, at the moment. Check back to stay up to date, as we update our databases every day.

Go to all conjunctions

Associated space launch

A batch of 24 satellites for the Starlink mega-constellation - SpaceX's project for space-based Internet communication system.

STARLINK-35373 was lifted into orbit during the mission ‘Falcon 9 Block 5 | Starlink Group 17-11’, on board a Falcon 9 space rocket.

The launch took place on Sept. 26, 2025, 4:26 a.m. from Space Launch Complex 4E.

For more information about the launch, click the button.

Launch to space Falcon 9 Block 5 | Starlink Group 17-11
Falcon 9 Block 5 | Starlink Group 17-11

Agency: SpaceX

Status: Launch Successful

Launch date: Sept. 26, 2025, 4:26 a.m. UTC

Rocket: Falcon 9

Launch pad: Space Launch Complex 4E

Location: Vandenberg SFB, CA, USA

...

Latest news about this satellite

News about space launch
Live coverage: SpaceX to launch 24 Starlink satellites on Falcon 9 rocket from Vandenberg

The Starlink 17-11 mission includes the 475th launch of a flight-proven booster. SpaceX is targeting liftoff from pad 4E at Vandenberg Space Force Base at 9:17 p.m. PDT (12:17 a.m. EDT / 0417 UTC).

News about space launch
Launch Roundup: Kuiper, Starlink, IMAP headline launch manifest

A busy slate of launches is planned for the last full week of September, including… The post Launch Roundup: Kuiper, Starlink, IMAP headline launch manifest appeared first on NASASpaceFlight.com.


Newsletter sign-up

Weekly statistics, charts and insights to help you stay on top of the space industry.